Weather History for VTSP - September, 2013

Change the Weather History Date:

Friday, September 20, 2013

  Actual Average Record
Temperature  
Mean Temperature 80 °F -  
Max Temperature 87 °F 87 °F - ()
Min Temperature 74 °F 76 °F - ()
Cooling Degree Days 16    
Growing Degree Days 30 (Base 50)    
Moisture  
Dew Point 75 °F    
Average Humidity 77    
Maximum Humidity 94    
Minimum Humidity 68    
Precipitation  
Precipitation 0.75 in 0.49 in - ()
Sea Level Pressure  
Sea Level Pressure 29.77 in    
Wind  
Wind Speed 12 mph ()    
Max Wind Speed 29 mph    
Max Gust Speed 40 mph    
Visibility 4.7 miles    
Events Rain    
T = Trace of Precipitation, MM = Missing Value Source: Averaged Metar Reports

Daily Weather History Graph

Daily Weather History Graph

Search for Another Location

Airport or City:

Trip Planner

Search our weather history database for the weather conditions in past years. The results will help you decide how hot, cold, wet, or windy it might be!

Date:

Astronomy

Sep. 20, 2013 Rise Set
Actual Time 6:16 AM ICT 6:24 PM ICT
Civil Twilight 5:55 AM ICT 6:44 PM ICT
Nautical Twilight 5:31 AM ICT 7:09 PM ICT
Astronomical Twilight 5:06 AM ICT 7:33 PM ICT
Moon 7:00 PM ICT (9/20) 6:41 AM ICT (9/20)
Length of Visible Light 12h 49m
Length of Day
12h 07m
Full, 99% of the Moon is Illuminated
Sep 20
Full
Sep 27
Last Quarter
Oct 5
New
Oct 12
First Quarter
Oct 19
Full

Hourly Weather History & Observations

Time (ICT) Temp. Heat Index Dew Point Humidity Pressure Visibility Wind Dir Wind Speed Gust Speed Precip Events Conditions
12:00 AM 84.2 °F 92.3 °F 75.2 °F 74% 29.80 in 5.0 mi West 16.1 mph - N/A   Mostly Cloudy
1:00 AM 82.4 °F 89.5 °F 75.2 °F 79% 29.77 in 5.0 mi West 15.0 mph - N/A   Mostly Cloudy
2:00 AM 84.2 °F 92.3 °F 75.2 °F 74% 29.77 in 5.0 mi West 15.0 mph - N/A   Mostly Cloudy
3:00 AM 77.0 °F - 71.6 °F 83% 29.77 in 1.2 mi West 17.3 mph 34.5 mph N/A Rain Rain
3:30 AM 77.0 °F - 75.2 °F 94% 29.74 in 3.1 mi West 16.1 mph - N/A Rain Rain
4:00 AM 77.0 °F - 75.2 °F 94% 29.74 in - North - - N/A Rain Rain
4:30 AM 77.0 °F - 73.4 °F 89% 29.77 in 1.2 mi West 28.8 mph 40.3 mph N/A Rain Rain
5:00 AM 78.8 °F - 73.4 °F 83% 29.77 in 3.1 mi West 17.3 mph 28.8 mph N/A Rain Rain
6:00 AM 78.8 °F - 75.2 °F 89% 29.77 in 4.3 mi West 9.2 mph - N/A Rain Light Rain
6:30 AM 80.6 °F 86.2 °F 75.2 °F 84% 29.77 in 4.3 mi West 10.4 mph - N/A Rain Light Rain
7:00 AM 82 °F - 78 °F 83% 29.75 in 5 mi Calm Calm - - Rain Light Rain
7:00 AM 78.8 °F - 75.2 °F 89% 29.77 in 5.0 mi Variable 2.3 mph - N/A   Mostly Cloudy
7:30 AM 78.8 °F - 75.2 °F 89% 29.77 in 5.0 mi Variable 3.5 mph - N/A   Mostly Cloudy
8:00 AM 80.6 °F 85.4 °F 73.4 °F 79% 29.80 in 5.0 mi SW 3.5 mph - N/A   Mostly Cloudy
8:30 AM 80.6 °F 85.4 °F 73.4 °F 79% 29.80 in 5.0 mi Variable 3.5 mph - N/A   Mostly Cloudy
9:00 AM 82.4 °F 89.5 °F 75.2 °F 79% 29.80 in 5.0 mi Variable 5.8 mph - N/A   Mostly Cloudy
9:30 AM 82.4 °F 89.5 °F 75.2 °F 79% 29.83 in 5.0 mi Variable 6.9 mph - N/A   Mostly Cloudy
10:00 AM 84.2 °F 94.1 °F 77.0 °F 79% 29.80 in 5.0 mi Variable 6.9 mph - N/A   Mostly Cloudy
10:30 AM 86.0 °F 96.9 °F 77.0 °F 74% 29.83 in 5.0 mi WSW 11.5 mph - N/A   Mostly Cloudy
11:00 AM 86.0 °F 95.1 °F 75.2 °F 70% 29.80 in 5.0 mi WSW 10.4 mph - N/A   Mostly Cloudy
11:30 AM 86.0 °F 95.1 °F 75.2 °F 70% 29.80 in 5.0 mi West 11.5 mph - N/A   Mostly Cloudy
12:00 PM 84.2 °F 92.3 °F 75.2 °F 74% 29.80 in 5.0 mi WSW 10.4 mph - N/A   Mostly Cloudy
12:30 PM 86.0 °F 95.1 °F 75.2 °F 70% 29.77 in 5.0 mi WSW 9.2 mph - N/A   Mostly Cloudy
1:00 PM 86 °F - 77 °F 68% 29.75 in 6 mi West 10.4 mph - -   Mist
1:00 PM 86.0 °F 95.1 °F 75.2 °F 70% 29.77 in 5.0 mi West 15.0 mph - N/A   Mostly Cloudy
1:30 PM 86.0 °F 95.1 °F 75.2 °F 70% 29.74 in 5.0 mi WSW 12.7 mph - N/A   Mostly Cloudy
2:00 PM 86.0 °F 95.1 °F 75.2 °F 70% 29.74 in 5.0 mi West 12.7 mph - N/A   Mostly Cloudy
2:30 PM 86.0 °F 95.1 °F 75.2 °F 70% 29.74 in 5.0 mi West 13.8 mph - N/A   Mostly Cloudy
3:00 PM 86.0 °F 95.1 °F 75.2 °F 70% 29.71 in 5.0 mi West 12.7 mph - N/A   Mostly Cloudy
3:30 PM 86.0 °F 95.1 °F 75.2 °F 70% 29.71 in 5.0 mi West 15.0 mph - N/A   Mostly Cloudy
4:00 PM 86.0 °F 95.1 °F 75.2 °F 70% 29.71 in 5.0 mi West 15.0 mph - N/A   Mostly Cloudy
4:30 PM 84.2 °F 92.3 °F 75.2 °F 74% 29.71 in 5.0 mi WSW 10.4 mph - N/A   Mostly Cloudy
5:00 PM 84.2 °F 92.3 °F 75.2 °F 74% 29.74 in 5.0 mi Variable 8.1 mph - N/A   Mostly Cloudy
5:30 PM 84.2 °F 92.3 °F 75.2 °F 74% 29.74 in 5.0 mi West 10.4 mph - N/A   Mostly Cloudy
6:00 PM 84.2 °F 92.3 °F 75.2 °F 74% 29.74 in 5.0 mi West 11.5 mph - N/A   Mostly Cloudy
6:30 PM 84.2 °F 92.3 °F 75.2 °F 74% 29.77 in 5.0 mi West 11.5 mph - N/A   Mostly Cloudy
7:00 PM 84 °F - 77 °F 74% 29.74 in 5 mi West 11.5 mph - -   Mist
7:00 PM 84.2 °F 92.3 °F 75.2 °F 74% 29.77 in 5.0 mi WSW 12.7 mph - N/A   Mostly Cloudy
7:30 PM 84.2 °F 92.3 °F 75.2 °F 74% 29.77 in 5.0 mi West 18.4 mph - N/A   Mostly Cloudy
8:00 PM 78.8 °F - 75.2 °F 89% 29.80 in 1.9 mi West 20.7 mph 33.4 mph N/A Rain Rain
8:30 PM 80.6 °F 85.4 °F 73.4 °F 79% 29.80 in 4.3 mi West 23.0 mph - N/A   Mostly Cloudy
9:00 PM 80.6 °F 84.6 °F 71.6 °F 74% 29.80 in 4.3 mi West 21.9 mph - N/A   Mostly Cloudy
9:30 PM 82.4 °F 87.2 °F 71.6 °F 70% 29.83 in 5.0 mi West 18.4 mph - N/A   Mostly Cloudy
10:00 PM 82.4 °F 87.2 °F 71.6 °F 70% 29.83 in 5.0 mi West 16.1 mph - N/A   Mostly Cloudy
10:30 PM 82.4 °F 87.2 °F 71.6 °F 70% 29.83 in 5.0 mi West 11.5 mph - N/A   Mostly Cloudy
11:00 PM 82.4 °F 87.2 °F 71.6 °F 70% 29.83 in 5.6 mi West 13.8 mph - N/A   Mostly Cloudy
11:30 PM 82.4 °F 88.2 °F 73.4 °F 74% 29.83 in 5.6 mi West 12.7 mph - N/A   Mostly Cloudy